Starlink 30556

operational
NORAD ID: 58031 Int'l Des: 2023-156 Owner: SPXS Country: US Constellation: starlink
LEOCIRCULAR

About Starlink 30556

Description loading...

Live Position

Loading 3D Globe...

Upcoming Passes

Altitude History

Altitude vs Time

uPlot chart will show altitude changes over time

Two-Line Element Set

1 58031U 23156D 25304.77780978 -.00000328 00000-0 10387-5 0 9999
2 58031 53.1606 327.1796 0001199 93.6668 266.4470 15.30190789116429
Epoch: Oct 31, 2025 • Age: 19 hours

Current Status

Altitude 480.5 km
Velocity 7.63 km/s
Sub-Earth Point 50.98°N, 142.11°E
Launch Date Oct 9, 2023
Age 2 years
Type internet

Technical Details

Classification Payload
Mass 730.00 kg
Dry Mass 700.00 kg
Total Mass 730.00 kg
Length 0.30 m
Diameter 4.10 m
Span 29.00 m
Shape Box + pan
Manufacturer SPXS
Bus Type Starlink V2M
Phase Status In Orbit
Owner/State SPXS/US

Large Constellations

Loading constellations...